owner,sensor,date,latitude,longitude,vertical_datum,wind_speed,wind_to_direction,wind_speed_of_gust,qcFlag 
DISL,ioos:station:DISL:MBLA:1,2015-04-01T00:00:00Z,30.4367,-88.0117,14.2,4.51,180.0,-9999.0,'1111122,1111122,1111122' 
DISL,ioos:station:DISL:MBLA:1,2015-04-01T00:30:00Z,30.4367,-88.0117,14.2,5.52,185.7,-9999.0,'1111122,1111122,1111122' 
DISL,ioos:station:DISL:MBLA:1,2015-04-01T01:00:00Z,30.4367,-88.0117,14.2,6.48,205.6,-9999.0,'1111122,1111122,1111122' 
DISL,ioos:station:DISL:MBLA:1,2015-04-01T01:30:00Z,30.4367,-88.0117,14.2,6.79,205.9,-9999.0,'1111122,1111122,1111122' 
DISL,ioos:station:DISL:MBLA:1,2015-04-01T02:00:00Z,30.4367,-88.0117,14.2,8.36,224.3,-9999.0,'1111122,1111122,1111122' 
DISL,ioos:station:DISL:MBLA:1,2015-04-01T02:30:00Z,30.4367,-88.0117,14.2,9.07,232.5,-9999.0,'1111122,1111122,1111122' 
DISL,ioos:station:DISL:MBLA:1,2015-04-01T03:00:00Z,30.4367,-88.0117,14.2,7.6,228.4,-9999.0,'1111122,1111122,1111122' 
DISL,ioos:station:DISL:MBLA:1,2015-04-01T03:30:00Z,30.4367,-88.0117,14.2,6.51,218.3,-9999.0,'1111122,1111122,1111122' 
DISL,ioos:station:DISL:MBLA:1,2015-04-01T04:00:00Z,30.4367,-88.0117,14.2,6.79,230.8,-9999.0,'1111122,1111122,1111122' 
DISL,ioos:station:DISL:MBLA:1,2015-04-01T04:30:00Z,30.4367,-88.0117,14.2,6.32,215.0,-9999.0,'1111122,1111122,1111122' 
DISL,ioos:station:DISL:MBLA:1,2015-04-01T05:00:00Z,30.4367,-88.0117,14.2,6.85,220.4,-9999.0,'1111122,1111122,1111122' 
DISL,ioos:station:DISL:MBLA:1,2015-04-01T05:30:00Z,30.4367,-88.0117,14.2,6.06,217.1,-9999.0,'1111122,1111122,1111122' 
DISL,ioos:station:DISL:MBLA:1,2015-04-01T06:00:00Z,30.4367,-88.0117,14.2,6.98,224.4,-9999.0,'1111122,1111122,1111122' 
DISL,ioos:station:DISL:MBLA:1,2015-04-01T06:30:00Z,30.4367,-88.0117,14.2,7.56,226.2,-9999.0,'1111122,1111122,1111122' 
DISL,ioos:station:DISL:MBLA:1,2015-04-01T07:00:00Z,30.4367,-88.0117,14.2,7.41,235.1,-9999.0,'1111122,1111122,1111122' 
DISL,ioos:station:DISL:MBLA:1,2015-04-01T07:30:00Z,30.4367,-88.0117,14.2,6.54,227.5,-9999.0,'1111122,1111122,1111122' 
DISL,ioos:station:DISL:MBLA:1,2015-04-01T08:00:00Z,30.4367,-88.0117,14.2,5.28,215.8,-9999.0,'1111122,1111122,1111122' 
DISL,ioos:station:DISL:MBLA:1,2015-04-01T08:30:00Z,30.4367,-88.0117,14.2,4.26,218.2,-9999.0,'1111122,1111122,1111122' 
DISL,ioos:station:DISL:MBLA:1,2015-04-01T09:00:00Z,30.4367,-88.0117,14.2,3.15,220.8,-9999.0,'1111122,1111122,1111122' 
DISL,ioos:station:DISL:MBLA:1,2015-04-01T09:30:00Z,30.4367,-88.0117,14.2,0.88,182.1,-9999.0,'1111122,1111122,1111122' 
DISL,ioos:station:DISL:MBLA:1,2015-04-01T10:00:00Z,30.4367,-88.0117,14.2,1.24,119.3,-9999.0,'1111122,1111122,1111122' 
DISL,ioos:station:DISL:MBLA:1,2015-04-01T10:30:00Z,30.4367,-88.0117,14.2,1.24,116.1,-9999.0,'1111122,1111122,1111122' 
DISL,ioos:station:DISL:MBLA:1,2015-04-01T11:00:00Z,30.4367,-88.0117,14.2,1.36,123.2,-9999.0,'1111122,1111122,1111122' 
DISL,ioos:station:DISL:MBLA:1,2015-04-01T11:30:00Z,30.4367,-88.0117,14.2,0.13,71.74,-9999.0,'1111122,1111122,1111122' 
DISL,ioos:station:DISL:MBLA:1,2015-04-01T12:00:00Z,30.4367,-88.0117,14.2,3.44,8.74,-9999.0,'1111122,1111122,1111122' 
DISL,ioos:station:DISL:MBLA:1,2015-04-01T12:30:00Z,30.4367,-88.0117,14.2,4.1,29.72,-9999.0,'1111122,1111122,1111122' 
DISL,ioos:station:DISL:MBLA:1,2015-04-01T13:00:00Z,30.4367,-88.0117,14.2,2.96,36.91,-9999.0,'1111122,1111122,1111122' 
DISL,ioos:station:DISL:MBLA:1,2015-04-01T13:30:00Z,30.4367,-88.0117,14.2,2.38,32.68,-9999.0,'1111122,1111122,1111122' 
DISL,ioos:station:DISL:MBLA:1,2015-04-01T14:00:00Z,30.4367,-88.0117,14.2,2.15,80.8,-9999.0,'1111122,1111122,1111122' 
DISL,ioos:station:DISL:MBLA:1,2015-04-01T14:30:00Z,30.4367,-88.0117,14.2,1.88,115.5,-9999.0,'1111122,1111122,1111122' 
DISL,ioos:station:DISL:MBLA:1,2015-04-01T15:00:00Z,30.4367,-88.0117,14.2,0.86,146.6,-9999.0,'1111122,1111122,1111122' 
DISL,ioos:station:DISL:MBLA:1,2015-04-01T15:30:00Z,30.4367,-88.0117,14.2,1.07,176.4,-9999.0,'1111122,1111122,1111122' 
DISL,ioos:station:DISL:MBLA:1,2015-04-01T16:00:00Z,30.4367,-88.0117,14.2,1.46,185.1,-9999.0,'1111122,1111122,1111122' 
DISL,ioos:station:DISL:MBLA:1,2015-04-01T16:30:00Z,30.4367,-88.0117,14.2,3.19,170.9,-9999.0,'1111122,1111122,1111122' 
DISL,ioos:station:DISL:MBLA:1,2015-04-01T17:00:00Z,30.4367,-88.0117,14.2,4.45,169.2,-9999.0,'1111122,1111122,1111122' 
DISL,ioos:station:DISL:MBLA:1,2015-04-01T17:30:00Z,30.4367,-88.0117,14.2,4.71,162.4,-9999.0,'1111122,1111122,1111122' 
DISL,ioos:station:DISL:MBLA:1,2015-04-01T18:00:00Z,30.4367,-88.0117,14.2,8.25,180.8,-9999.0,'1111122,1111122,1111122' 
DISL,ioos:station:DISL:MBLA:1,2015-04-01T18:30:00Z,30.4367,-88.0117,14.2,8.6,185.5,-9999.0,'1111122,1111122,1111122' 
DISL,ioos:station:DISL:MBLA:1,2015-04-01T19:00:00Z,30.4367,-88.0117,14.2,8.06,183.0,-9999.0,'1111122,1111122,1111122' 
DISL,ioos:station:DISL:MBLA:1,2015-04-01T19:30:00Z,30.4367,-88.0117,14.2,7.41,187.0,-9999.0,'1111122,1111122,1111122' 
DISL,ioos:station:DISL:MBLA:1,2015-04-01T20:00:00Z,30.4367,-88.0117,14.2,7.71,186.6,-9999.0,'1111122,1111122,1111122' 
DISL,ioos:station:DISL:MBLA:1,2015-04-01T20:30:00Z,30.4367,-88.0117,14.2,7.38,179.4,-9999.0,'1111122,1111122,1111122' 
DISL,ioos:station:DISL:MBLA:1,2015-04-01T21:00:00Z,30.4367,-88.0117,14.2,6.18,180.4,-9999.0,'1111122,1111122,1111122' 
DISL,ioos:station:DISL:MBLA:1,2015-04-01T21:30:00Z,30.4367,-88.0117,14.2,4.98,171.3,-9999.0,'1111122,1111122,1111122' 
DISL,ioos:station:DISL:MBLA:1,2015-04-01T22:00:00Z,30.4367,-88.0117,14.2,4.59,164.9,-9999.0,'1111122,1111122,1111122' 
DISL,ioos:station:DISL:MBLA:1,2015-04-01T22:30:00Z,30.4367,-88.0117,14.2,5.29,169.9,-9999.0,'1111122,1111122,1111122' 
DISL,ioos:station:DISL:MBLA:1,2015-04-01T23:00:00Z,30.4367,-88.0117,14.2,6.95,182.5,-9999.0,'1111122,1111122,1111122' 
DISL,ioos:station:DISL:MBLA:1,2015-04-01T23:30:00Z,30.4367,-88.0117,14.2,6.09,181.1,-9999.0,'1111122,1111122,1111122' 
DISL,ioos:station:DISL:MBLA:1,2015-04-02T00:00:00Z,30.4367,-88.0117,14.2,6.14,185.8,-9999.0,'1111122,1111122,1111122' 
DISL,ioos:station:DISL:MBLA:1,2015-04-02T00:30:00Z,30.4367,-88.0117,14.2,5.9,176.0,-9999.0,'1111122,1111122,1111122' 
DISL,ioos:station:DISL:MBLA:1,2015-04-02T01:00:00Z,30.4367,-88.0117,14.2,5.23,162.9,-9999.0,'1111122,1111122,1111122' 
DISL,ioos:station:DISL:MBLA:1,2015-04-02T01:30:00Z,30.4367,-88.0117,14.2,5.58,164.0,-9999.0,'1111122,1111122,1111122' 
DISL,ioos:station:DISL:MBLA:1,2015-04-02T02:00:00Z,30.4367,-88.0117,14.2,5.22,150.5,-9999.0,'1111122,1111122,1111122' 
DISL,ioos:station:DISL:MBLA:1,2015-04-02T02:30:00Z,30.4367,-88.0117,14.2,4.79,131.4,-9999.0,'1111122,1111122,1111122' 
DISL,ioos:station:DISL:MBLA:1,2015-04-02T03:00:00Z,30.4367,-88.0117,14.2,4.81,124.7,-9999.0,'1111122,1111122,1111122' 
DISL,ioos:station:DISL:MBLA:1,2015-04-02T03:30:00Z,30.4367,-88.0117,14.2,2.92,135.9,-9999.0,'1111122,1111122,1111122' 
DISL,ioos:station:DISL:MBLA:1,2015-04-02T04:00:00Z,30.4367,-88.0117,14.2,4.78,172.5,-9999.0,'1111122,1111122,1111122' 
DISL,ioos:station:DISL:MBLA:1,2015-04-02T04:30:00Z,30.4367,-88.0117,14.2,4.72,158.6,-9999.0,'1111122,1111122,1111122' 
DISL,ioos:station:DISL:MBLA:1,2015-04-02T05:00:00Z,30.4367,-88.0117,14.2,4.03,155.0,-9999.0,'1111122,1111122,1111122' 
DISL,ioos:station:DISL:MBLA:1,2015-04-02T05:30:00Z,30.4367,-88.0117,14.2,4.28,155.3,-9999.0,'1111122,1111122,1111122' 
DISL,ioos:station:DISL:MBLA:1,2015-04-02T06:00:00Z,30.4367,-88.0117,14.2,5.53,174.7,-9999.0,'1111122,1111122,1111122' 
DISL,ioos:station:DISL:MBLA:1,2015-04-02T06:30:00Z,30.4367,-88.0117,14.2,3.36,146.1,-9999.0,'1111122,1111122,1111122' 
DISL,ioos:station:DISL:MBLA:1,2015-04-02T07:00:00Z,30.4367,-88.0117,14.2,5.89,165.8,-9999.0,'1111122,1111122,1111122' 
DISL,ioos:station:DISL:MBLA:1,2015-04-02T07:30:00Z,30.4367,-88.0117,14.2,4.49,154.3,-9999.0,'1111122,1111122,1111122' 
DISL,ioos:station:DISL:MBLA:1,2015-04-02T08:00:00Z,30.4367,-88.0117,14.2,3.67,153.0,-9999.0,'1111122,1111122,1111122' 
DISL,ioos:station:DISL:MBLA:1,2015-04-02T08:30:00Z,30.4367,-88.0117,14.2,3.71,151.7,-9999.0,'1111122,1111122,1111122' 
DISL,ioos:station:DISL:MBLA:1,2015-04-02T09:00:00Z,30.4367,-88.0117,14.2,0.87,124.2,-9999.0,'1111122,1111122,1111122' 
DISL,ioos:station:DISL:MBLA:1,2015-04-02T09:30:00Z,30.4367,-88.0117,14.2,2.15,140.0,-9999.0,'1111122,1111122,1111122' 
DISL,ioos:station:DISL:MBLA:1,2015-04-02T10:00:00Z,30.4367,-88.0117,14.2,0.77,117.6,-9999.0,'1111122,1111122,1111122' 
DISL,ioos:station:DISL:MBLA:1,2015-04-02T10:30:00Z,30.4367,-88.0117,14.2,1.46,133.6,-9999.0,'1111122,1111122,1111122' 
DISL,ioos:station:DISL:MBLA:1,2015-04-02T11:00:00Z,30.4367,-88.0117,14.2,2.88,138.9,-9999.0,'1111122,1111122,1111122' 
DISL,ioos:station:DISL:MBLA:1,2015-04-02T11:30:00Z,30.4367,-88.0117,14.2,5.12,141.5,-9999.0,'1111122,1111122,1111122' 
DISL,ioos:station:DISL:MBLA:1,2015-04-02T12:00:00Z,30.4367,-88.0117,14.2,5.43,139.4,-9999.0,'1111122,1111122,1111122' 
DISL,ioos:station:DISL:MBLA:1,2015-04-02T12:30:00Z,30.4367,-88.0117,14.2,3.96,152.1,-9999.0,'1111122,1111122,1111122' 
DISL,ioos:station:DISL:MBLA:1,2015-04-02T13:00:00Z,30.4367,-88.0117,14.2,3.85,150.3,-9999.0,'1111122,1111122,1111122' 
DISL,ioos:station:DISL:MBLA:1,2015-04-02T13:30:00Z,30.4367,-88.0117,14.2,4.47,154.8,-9999.0,'1111122,1111122,1111122' 
DISL,ioos:station:DISL:MBLA:1,2015-04-02T14:00:00Z,30.4367,-88.0117,14.2,5.1,163.3,-9999.0,'1111122,1111122,1111122' 
DISL,ioos:station:DISL:MBLA:1,2015-04-02T14:30:00Z,30.4367,-88.0117,14.2,6.18,165.7,-9999.0,'1111122,1111122,1111122' 
DISL,ioos:station:DISL:MBLA:1,2015-04-02T15:00:00Z,30.4367,-88.0117,14.2,6.93,162.3,-9999.0,'1111122,1111122,1111122' 
DISL,ioos:station:DISL:MBLA:1,2015-04-02T15:30:00Z,30.4367,-88.0117,14.2,7.18,165.3,-9999.0,'1111122,1111122,1111122' 
DISL,ioos:station:DISL:MBLA:1,2015-04-02T16:00:00Z,30.4367,-88.0117,14.2,6.26,156.5,-9999.0,'1111122,1111122,1111122' 
DISL,ioos:station:DISL:MBLA:1,2015-04-02T16:30:00Z,30.4367,-88.0117,14.2,6.05,161.0,-9999.0,'1111122,1111122,1111122' 
DISL,ioos:station:DISL:MBLA:1,2015-04-02T17:00:00Z,30.4367,-88.0117,14.2,6.39,149.1,-9999.0,'1111122,1111122,1111122' 
DISL,ioos:station:DISL:MBLA:1,2015-04-02T17:30:00Z,30.4367,-88.0117,14.2,6.48,159.4,-9999.0,'1111122,1111122,1111122' 
DISL,ioos:station:DISL:MBLA:1,2015-04-02T18:00:00Z,30.4367,-88.0117,14.2,4.73,158.7,-9999.0,'1111122,1111122,1111122' 
DISL,ioos:station:DISL:MBLA:1,2015-04-02T18:30:00Z,30.4367,-88.0117,14.2,7.29,166.7,-9999.0,'1111122,1111122,1111122' 
DISL,ioos:station:DISL:MBLA:1,2015-04-02T19:00:00Z,30.4367,-88.0117,14.2,7.89,165.1,-9999.0,'1111122,1111122,1111122' 
DISL,ioos:station:DISL:MBLA:1,2015-04-02T19:30:00Z,30.4367,-88.0117,14.2,7.87,167.2,-9999.0,'1111122,1111122,1111122' 
DISL,ioos:station:DISL:MBLA:1,2015-04-02T20:00:00Z,30.4367,-88.0117,14.2,6.92,167.7,-9999.0,'1111122,1111122,1111122' 
DISL,ioos:station:DISL:MBLA:1,2015-04-02T20:30:00Z,30.4367,-88.0117,14.2,7.24,169.7,-9999.0,'1111122,1111122,1111122' 
DISL,ioos:station:DISL:MBLA:1,2015-04-02T21:00:00Z,30.4367,-88.0117,14.2,7.11,171.3,-9999.0,'1111122,1111122,1111122' 
DISL,ioos:station:DISL:MBLA:1,2015-04-02T21:30:00Z,30.4367,-88.0117,14.2,6.56,165.7,-9999.0,'1111122,1111122,1111122' 
DISL,ioos:station:DISL:MBLA:1,2015-04-02T22:00:00Z,30.4367,-88.0117,14.2,5.91,163.2,-9999.0,'1111122,1111122,1111122' 
DISL,ioos:station:DISL:MBLA:1,2015-04-02T22:30:00Z,30.4367,-88.0117,14.2,4.84,159.4,-9999.0,'1111122,1111122,1111122' 
DISL,ioos:station:DISL:MBLA:1,2015-04-02T23:00:00Z,30.4367,-88.0117,14.2,5.64,152.5,-9999.0,'1111122,1111122,1111122' 
DISL,ioos:station:DISL:MBLA:1,2015-04-02T23:30:00Z,30.4367,-88.0117,14.2,5.39,154.2,-9999.0,'1111122,1111122,1111122' 
DISL,ioos:station:DISL:MBLA:1,2015-04-03T00:00:00Z,30.4367,-88.0117,14.2,5.26,150.9,-9999.0,'1111122,1111122,1111122' 
DISL,ioos:station:DISL:MBLA:1,2015-04-03T00:30:00Z,30.4367,-88.0117,14.2,6.02,148.8,-9999.0,'1111122,1111122,1111122' 
DISL,ioos:station:DISL:MBLA:1,2015-04-03T01:00:00Z,30.4367,-88.0117,14.2,6.56,156.6,-9999.0,'1111122,1111122,1111122' 
DISL,ioos:station:DISL:MBLA:1,2015-04-03T01:30:00Z,30.4367,-88.0117,14.2,7.19,155.5,-9999.0,'1111122,1111122,1111122' 
DISL,ioos:station:DISL:MBLA:1,2015-04-03T02:00:00Z,30.4367,-88.0117,14.2,6.94,151.6,-9999.0,'1111122,1111122,1111122' 
DISL,ioos:station:DISL:MBLA:1,2015-04-03T02:30:00Z,30.4367,-88.0117,14.2,6.65,153.2,-9999.0,'1111122,1111122,1111122' 
DISL,ioos:station:DISL:MBLA:1,2015-04-03T03:00:00Z,30.4367,-88.0117,14.2,6.29,151.3,-9999.0,'1111122,1111122,1111122' 
DISL,ioos:station:DISL:MBLA:1,2015-04-03T03:30:00Z,30.4367,-88.0117,14.2,6.12,153.2,-9999.0,'1111122,1111122,1111122' 
DISL,ioos:station:DISL:MBLA:1,2015-04-03T04:00:00Z,30.4367,-88.0117,14.2,6.36,157.6,-9999.0,'1111122,1111122,1111122' 
DISL,ioos:station:DISL:MBLA:1,2015-04-03T04:30:00Z,30.4367,-88.0117,14.2,6.7,156.0,-9999.0,'1111122,1111122,1111122' 
DISL,ioos:station:DISL:MBLA:1,2015-04-03T05:00:00Z,30.4367,-88.0117,14.2,6.22,158.9,-9999.0,'1111122,1111122,1111122' 
DISL,ioos:station:DISL:MBLA:1,2015-04-03T05:30:00Z,30.4367,-88.0117,14.2,5.2,155.8,-9999.0,'1111122,1111122,1111122' 
DISL,ioos:station:DISL:MBLA:1,2015-04-03T06:00:00Z,30.4367,-88.0117,14.2,5.49,151.8,-9999.0,'1111122,1111122,1111122' 
DISL,ioos:station:DISL:MBLA:1,2015-04-03T06:30:00Z,30.4367,-88.0117,14.2,6.47,159.1,-9999.0,'1111122,1111122,1111122' 
DISL,ioos:station:DISL:MBLA:1,2015-04-03T07:00:00Z,30.4367,-88.0117,14.2,5.62,157.9,-9999.0,'1111122,1111122,1111122' 
DISL,ioos:station:DISL:MBLA:1,2015-04-03T07:30:00Z,30.4367,-88.0117,14.2,5.28,162.0,-9999.0,'1111122,1111122,1111122' 
DISL,ioos:station:DISL:MBLA:1,2015-04-03T08:00:00Z,30.4367,-88.0117,14.2,5.0,170.4,-9999.0,'1111122,1111122,1111122' 
DISL,ioos:station:DISL:MBLA:1,2015-04-03T08:30:00Z,30.4367,-88.0117,14.2,5.08,174.0,-9999.0,'1111122,1111122,1111122' 
DISL,ioos:station:DISL:MBLA:1,2015-04-03T09:00:00Z,30.4367,-88.0117,14.2,4.48,163.0,-9999.0,'1111122,1111122,1111122' 
DISL,ioos:station:DISL:MBLA:1,2015-04-03T09:30:00Z,30.4367,-88.0117,14.2,4.31,164.2,-9999.0,'1111122,1111122,1111122' 
DISL,ioos:station:DISL:MBLA:1,2015-04-03T10:00:00Z,30.4367,-88.0117,14.2,3.7,160.9,-9999.0,'1111122,1111122,1111122' 
DISL,ioos:station:DISL:MBLA:1,2015-04-03T10:30:00Z,30.4367,-88.0117,14.2,3.73,156.8,-9999.0,'1111122,1111122,1111122' 
DISL,ioos:station:DISL:MBLA:1,2015-04-03T11:00:00Z,30.4367,-88.0117,14.2,3.98,165.3,-9999.0,'1111122,1111122,1111122' 
DISL,ioos:station:DISL:MBLA:1,2015-04-03T11:30:00Z,30.4367,-88.0117,14.2,3.86,155.0,-9999.0,'1111122,1111122,1111122' 
DISL,ioos:station:DISL:MBLA:1,2015-04-03T12:00:00Z,30.4367,-88.0117,14.2,3.92,155.9,-9999.0,'1111122,1111122,1111122' 
DISL,ioos:station:DISL:MBLA:1,2015-04-03T12:30:00Z,30.4367,-88.0117,14.2,3.83,148.9,-9999.0,'1111122,1111122,1111122' 
DISL,ioos:station:DISL:MBLA:1,2015-04-03T13:00:00Z,30.4367,-88.0117,14.2,3.64,153.3,-9999.0,'1111122,1111122,1111122' 
DISL,ioos:station:DISL:MBLA:1,2015-04-03T13:30:00Z,30.4367,-88.0117,14.2,4.5,148.2,-9999.0,'1111122,1111122,1111122' 
DISL,ioos:station:DISL:MBLA:1,2015-04-03T14:00:00Z,30.4367,-88.0117,14.2,5.14,146.7,-9999.0,'1111122,1111122,1111122' 
DISL,ioos:station:DISL:MBLA:1,2015-04-03T14:30:00Z,30.4367,-88.0117,14.2,5.27,165.3,-9999.0,'1111122,1111122,1111122' 
DISL,ioos:station:DISL:MBLA:1,2015-04-03T15:00:00Z,30.4367,-88.0117,14.2,5.17,168.1,-9999.0,'1111122,1111122,1111122' 
DISL,ioos:station:DISL:MBLA:1,2015-04-03T15:30:00Z,30.4367,-88.0117,14.2,4.73,170.6,-9999.0,'1111122,1111122,1111122' 
DISL,ioos:station:DISL:MBLA:1,2015-04-03T16:00:00Z,30.4367,-88.0117,14.2,5.33,175.7,-9999.0,'1111122,1111122,1111122' 
DISL,ioos:station:DISL:MBLA:1,2015-04-03T16:30:00Z,30.4367,-88.0117,14.2,5.68,177.2,-9999.0,'1111122,1111122,1111122' 
DISL,ioos:station:DISL:MBLA:1,2015-04-03T17:00:00Z,30.4367,-88.0117,14.2,6.12,171.1,-9999.0,'1111122,1111122,1111122' 
DISL,ioos:station:DISL:MBLA:1,2015-04-03T17:30:00Z,30.4367,-88.0117,14.2,6.07,173.1,-9999.0,'1111122,1111122,1111122' 
DISL,ioos:station:DISL:MBLA:1,2015-04-03T18:00:00Z,30.4367,-88.0117,14.2,6.77,175.5,-9999.0,'1111122,1111122,1111122' 
DISL,ioos:station:DISL:MBLA:1,2015-04-03T18:30:00Z,30.4367,-88.0117,14.2,6.49,174.2,-9999.0,'1111122,1111122,1111122' 
DISL,ioos:station:DISL:MBLA:1,2015-04-03T19:00:00Z,30.4367,-88.0117,14.2,6.96,175.4,-9999.0,'1111122,1111122,1111122' 
DISL,ioos:station:DISL:MBLA:1,2015-04-03T19:30:00Z,30.4367,-88.0117,14.2,7.02,183.3,-9999.0,'1111122,1111122,1111122' 
DISL,ioos:station:DISL:MBLA:1,2015-04-03T20:00:00Z,30.4367,-88.0117,14.2,7.13,183.3,-9999.0,'1111122,1111122,1111122' 
DISL,ioos:station:DISL:MBLA:1,2015-04-03T20:30:00Z,30.4367,-88.0117,14.2,6.51,178.6,-9999.0,'1111122,1111122,1111122' 
DISL,ioos:station:DISL:MBLA:1,2015-04-03T21:00:00Z,30.4367,-88.0117,14.2,7.06,170.8,-9999.0,'1111122,1111122,1111122' 
DISL,ioos:station:DISL:MBLA:1,2015-04-03T21:30:00Z,30.4367,-88.0117,14.2,7.28,177.0,-9999.0,'1111122,1111122,1111122' 
DISL,ioos:station:DISL:MBLA:1,2015-04-03T22:00:00Z,30.4367,-88.0117,14.2,6.48,177.5,-9999.0,'1111122,1111122,1111122' 
DISL,ioos:station:DISL:MBLA:1,2015-04-03T22:30:00Z,30.4367,-88.0117,14.2,7.33,180.9,-9999.0,'1111122,1111122,1111122' 
DISL,ioos:station:DISL:MBLA:1,2015-04-03T23:00:00Z,30.4367,-88.0117,14.2,7.55,182.2,-9999.0,'1111122,1111122,1111122' 
DISL,ioos:station:DISL:MBLA:1,2015-04-03T23:30:00Z,30.4367,-88.0117,14.2,7.72,186.9,-9999.0,'1111122,1111122,1111122' 
DISL,ioos:station:DISL:MBLA:1,2015-04-04T00:00:00Z,30.4367,-88.0117,14.2,7.71,189.2,-9999.0,'1111122,1111122,1111122' 
DISL,ioos:station:DISL:MBLA:1,2015-04-04T00:30:00Z,30.4367,-88.0117,14.2,7.47,189.5,-9999.0,'1111122,1111122,1111122' 
DISL,ioos:station:DISL:MBLA:1,2015-04-04T01:00:00Z,30.4367,-88.0117,14.2,6.81,184.9,-9999.0,'1111122,1111122,1111122' 
DISL,ioos:station:DISL:MBLA:1,2015-04-04T01:30:00Z,30.4367,-88.0117,14.2,7.14,191.3,-9999.0,'1111122,1111122,1111122' 
DISL,ioos:station:DISL:MBLA:1,2015-04-04T02:00:00Z,30.4367,-88.0117,14.2,7.14,177.4,-9999.0,'1111122,1111122,1111122' 
DISL,ioos:station:DISL:MBLA:1,2015-04-04T02:30:00Z,30.4367,-88.0117,14.2,7.79,179.2,-9999.0,'1111122,1111122,1111122' 
DISL,ioos:station:DISL:MBLA:1,2015-04-04T03:00:00Z,30.4367,-88.0117,14.2,7.79,187.5,-9999.0,'1111122,1111122,1111122' 
DISL,ioos:station:DISL:MBLA:1,2015-04-04T03:30:00Z,30.4367,-88.0117,14.2,7.52,190.8,-9999.0,'1111122,1111122,1111122' 
DISL,ioos:station:DISL:MBLA:1,2015-04-04T04:00:00Z,30.4367,-88.0117,14.2,7.56,197.7,-9999.0,'1111122,1111122,1111122' 
DISL,ioos:station:DISL:MBLA:1,2015-04-04T04:30:00Z,30.4367,-88.0117,14.2,6.22,198.9,-9999.0,'1111122,1111122,1111122' 
DISL,ioos:station:DISL:MBLA:1,2015-04-04T05:00:00Z,30.4367,-88.0117,14.2,6.36,199.9,-9999.0,'1111122,1111122,1111122' 
DISL,ioos:station:DISL:MBLA:1,2015-04-04T05:30:00Z,30.4367,-88.0117,14.2,6.26,200.0,-9999.0,'1111122,1111122,1111122' 
DISL,ioos:station:DISL:MBLA:1,2015-04-04T06:00:00Z,30.4367,-88.0117,14.2,6.03,204.4,-9999.0,'1111122,1111122,1111122' 
DISL,ioos:station:DISL:MBLA:1,2015-04-04T06:30:00Z,30.4367,-88.0117,14.2,5.73,218.4,-9999.0,'1111122,1111122,1111122' 
DISL,ioos:station:DISL:MBLA:1,2015-04-04T07:00:00Z,30.4367,-88.0117,14.2,5.84,230.5,-9999.0,'1111122,1111122,1111122' 
DISL,ioos:station:DISL:MBLA:1,2015-04-04T07:30:00Z,30.4367,-88.0117,14.2,5.73,222.4,-9999.0,'1111122,1111122,1111122' 
DISL,ioos:station:DISL:MBLA:1,2015-04-04T08:00:00Z,30.4367,-88.0117,14.2,5.55,225.2,-9999.0,'1111122,1111122,1111122' 
DISL,ioos:station:DISL:MBLA:1,2015-04-04T08:30:00Z,30.4367,-88.0117,14.2,5.22,229.6,-9999.0,'1111122,1111122,1111122' 
DISL,ioos:station:DISL:MBLA:1,2015-04-04T09:00:00Z,30.4367,-88.0117,14.2,4.07,246.9,-9999.0,'1111122,1111122,1111122' 
DISL,ioos:station:DISL:MBLA:1,2015-04-04T09:30:00Z,30.4367,-88.0117,14.2,4.56,254.1,-9999.0,'1111122,1111122,1111122' 
DISL,ioos:station:DISL:MBLA:1,2015-04-04T10:00:00Z,30.4367,-88.0117,14.2,4.78,249.3,-9999.0,'1111122,1111122,1111122' 
DISL,ioos:station:DISL:MBLA:1,2015-04-04T10:30:00Z,30.4367,-88.0117,14.2,5.4,276.2,-9999.0,'1111122,1111122,1111122' 
DISL,ioos:station:DISL:MBLA:1,2015-04-04T11:00:00Z,30.4367,-88.0117,14.2,4.99,301.4,-9999.0,'1111122,1111122,1111122' 
DISL,ioos:station:DISL:MBLA:1,2015-04-04T11:30:00Z,30.4367,-88.0117,14.2,5.83,330.1,-9999.0,'1111122,1111122,1111122' 
DISL,ioos:station:DISL:MBLA:1,2015-04-04T12:00:00Z,30.4367,-88.0117,14.2,13.49,1.578,-9999.0,'1111122,1111122,1111122' 
DISL,ioos:station:DISL:MBLA:1,2015-04-04T12:30:00Z,30.4367,-88.0117,14.2,13.57,351.7,-9999.0,'1111122,1111122,1111122' 
DISL,ioos:station:DISL:MBLA:1,2015-04-04T13:00:00Z,30.4367,-88.0117,14.2,13.14,355.4,-9999.0,'1111122,1111122,1111122' 
DISL,ioos:station:DISL:MBLA:1,2015-04-04T13:30:00Z,30.4367,-88.0117,14.2,12.87,352.8,-9999.0,'1111122,1111122,1111122' 
DISL,ioos:station:DISL:MBLA:1,2015-04-04T14:00:00Z,30.4367,-88.0117,14.2,11.55,356.5,-9999.0,'1111122,1111122,1111122' 
DISL,ioos:station:DISL:MBLA:1,2015-04-04T14:30:00Z,30.4367,-88.0117,14.2,12.25,349.1,-9999.0,'1111122,1111122,1111122' 
DISL,ioos:station:DISL:MBLA:1,2015-04-04T15:00:00Z,30.4367,-88.0117,14.2,12.24,8.8,-9999.0,'1111122,1111122,1111122' 
DISL,ioos:station:DISL:MBLA:1,2015-04-04T15:30:00Z,30.4367,-88.0117,14.2,12.24,349.4,-9999.0,'1111122,1111122,1111122' 
DISL,ioos:station:DISL:MBLA:1,2015-04-04T16:00:00Z,30.4367,-88.0117,14.2,10.04,358.1,-9999.0,'1111122,1111122,1111122' 
DISL,ioos:station:DISL:MBLA:1,2015-04-04T16:30:00Z,30.4367,-88.0117,14.2,9.29,6.977,-9999.0,'1111122,1111122,1111122' 
DISL,ioos:station:DISL:MBLA:1,2015-04-04T17:00:00Z,30.4367,-88.0117,14.2,10.43,359.4,-9999.0,'1111122,1111122,1111122' 
DISL,ioos:station:DISL:MBLA:1,2015-04-04T17:30:00Z,30.4367,-88.0117,14.2,10.7,10.87,-9999.0,'1111122,1111122,1111122' 
DISL,ioos:station:DISL:MBLA:1,2015-04-04T18:00:00Z,30.4367,-88.0117,14.2,11.33,356.8,-9999.0,'1111122,1111122,1111122' 
DISL,ioos:station:DISL:MBLA:1,2015-04-04T18:30:00Z,30.4367,-88.0117,14.2,10.62,354.6,-9999.0,'1111122,1111122,1111122' 
DISL,ioos:station:DISL:MBLA:1,2015-04-04T19:00:00Z,30.4367,-88.0117,14.2,10.25,354.1,-9999.0,'1111122,1111122,1111122' 
DISL,ioos:station:DISL:MBLA:1,2015-04-04T19:30:00Z,30.4367,-88.0117,14.2,10.66,349.6,-9999.0,'1111122,1111122,1111122' 
DISL,ioos:station:DISL:MBLA:1,2015-04-04T20:00:00Z,30.4367,-88.0117,14.2,10.07,355.7,-9999.0,'1111122,1111122,1111122' 
DISL,ioos:station:DISL:MBLA:1,2015-04-04T20:30:00Z,30.4367,-88.0117,14.2,9.68,352.3,-9999.0,'1111122,1111122,1111122' 
DISL,ioos:station:DISL:MBLA:1,2015-04-04T21:00:00Z,30.4367,-88.0117,14.2,8.74,354.4,-9999.0,'1111122,1111122,1111122' 
DISL,ioos:station:DISL:MBLA:1,2015-04-04T21:30:00Z,30.4367,-88.0117,14.2,9.16,348.2,-9999.0,'1111122,1111122,1111122' 
DISL,ioos:station:DISL:MBLA:1,2015-04-04T22:00:00Z,30.4367,-88.0117,14.2,7.92,359.9,-9999.0,'1111122,1111122,1111122' 
DISL,ioos:station:DISL:MBLA:1,2015-04-04T22:30:00Z,30.4367,-88.0117,14.2,9.85,354.9,-9999.0,'1111122,1111122,1111122' 
DISL,ioos:station:DISL:MBLA:1,2015-04-04T23:00:00Z,30.4367,-88.0117,14.2,10.17,3.742,-9999.0,'1111122,1111122,1111122' 
DISL,ioos:station:DISL:MBLA:1,2015-04-04T23:30:00Z,30.4367,-88.0117,14.2,9.19,5.477,-9999.0,'1111122,1111122,1111122' 
DISL,ioos:station:DISL:MBLA:1,2015-04-05T00:00:00Z,30.4367,-88.0117,14.2,9.31,10.69,-9999.0,'1111122,1111122,1111122' 
DISL,ioos:station:DISL:MBLA:1,2015-04-05T00:30:00Z,30.4367,-88.0117,14.2,8.5,14.34,-9999.0,'1111122,1111122,1111122' 
DISL,ioos:station:DISL:MBLA:1,2015-04-05T01:00:00Z,30.4367,-88.0117,14.2,8.36,33.36,-9999.0,'1111122,1111122,1111122' 
DISL,ioos:station:DISL:MBLA:1,2015-04-05T01:30:00Z,30.4367,-88.0117,14.2,8.68,36.32,-9999.0,'1111122,1111122,1111122' 
DISL,ioos:station:DISL:MBLA:1,2015-04-05T02:00:00Z,30.4367,-88.0117,14.2,8.4,44.19,-9999.0,'1111122,1111122,1111122' 
DISL,ioos:station:DISL:MBLA:1,2015-04-05T02:30:00Z,30.4367,-88.0117,14.2,8.35,46.3,-9999.0,'1111122,1111122,1111122' 
DISL,ioos:station:DISL:MBLA:1,2015-04-05T03:00:00Z,30.4367,-88.0117,14.2,8.39,45.46,-9999.0,'1111122,1111122,1111122' 
DISL,ioos:station:DISL:MBLA:1,2015-04-05T03:30:00Z,30.4367,-88.0117,14.2,8.66,38.74,-9999.0,'1111122,1111122,1111122' 